• In India
  • List of Countries
  • For 7 days
  • Water Temperature
  • Satellite Maps
  • Weather Map
  • Weather Widgets
  • user-avatar
    Login

    Hourly Weather Contadero

    Today, 13 December, Wednesday

    Time Temperature Precipitation Wind Pressure Humidity
    00:00 +10°C° 0 mm 1 mps 549 mmHg 86%
    01:00 +9°C° 0 mm 1 mps 549 mmHg 86%
    02:00 +9°C° 0 mm 1 mps 549 mmHg 85%
    03:00 +9°C° 0 mm 1 mps 549 mmHg 83%
    04:00 +9°C° 0 mm 1 mps 549 mmHg 82%
    05:00 +10°C° 0 mm 1 mps 549 mmHg 79%
    06:00 +10°C° 0 mm 1 mps 550 mmHg 76%
    07:00 +11°C° 0 mm 1 mps 550 mmHg 73%
    08:00 +13°C° 0 mm 1 mps 552 mmHg 63%
    09:00 +16°C° 0 mm 1 mps 553 mmHg 53%
    10:00 +18°C° 0 mm 2 mps 554 mmHg 43%
    11:00 +18°C° 0 mm 2 mps 554 mmHg 45%
    12:00 +19°C° 0 mm 2 mps 554 mmHg 47%
    13:00 +19°C° 0 mm 3 mps 554 mmHg 48%
    14:00 +18°C° 0.4 mm 2 mps 553 mmHg 55%
    15:00 +17°C° 0.4 mm 2 mps 552 mmHg 62%
    16:00 +16°C° 0.4 mm 2 mps 551 mmHg 69%
    17:00 +15°C° 0.5 mm 1 mps 550 mmHg 77%
    18:00 +13°C° 0.5 mm 1 mps 550 mmHg 85%
    19:00 +10°C° 0.5 mm 0 mps 549 mmHg 93%
    20:00 +10°C° 0.2 mm 0 mps 549 mmHg 93%
    21:00 +10°C° 0.2 mm 0 mps 550 mmHg 93%
    22:00 +10°C° 0.2 mm 0 mps 550 mmHg 93%
    23:00 +10°C° 0 mm 0 mps 549 mmHg 92%

    Tomorrow, 14 December, Thursday

    Time Temperature Precipitation Wind Pressure Humidity
    00:00 +9°C° 0 mm 0 mps 549 mmHg 92%
    01:00 +10°C° 0 mm 1 mps 549 mmHg 92%
    02:00 +9°C° 0 mm 0 mps 549 mmHg 91%
    03:00 +9°C° 0 mm 0 mps 548 mmHg 91%
    04:00 +8°C° 0 mm 0 mps 548 mmHg 90%
    05:00 +10°C° 0 mm 1 mps 549 mmHg 87%
    06:00 +10°C° 0 mm 1 mps 549 mmHg 85%
    07:00 +11°C° 0 mm 1 mps 550 mmHg 82%
    08:00 +13°C° 0 mm 1 mps 551 mmHg 73%
    09:00 +15°C° 0 mm 2 mps 552 mmHg 64%
    10:00 +17°C° 0 mm 2 mps 554 mmHg 54%
    11:00 +17°C° 0.1 mm 2 mps 553 mmHg 57%
    12:00 +18°C° 0.1 mm 2 mps 553 mmHg 59%
    13:00 +18°C° 0.1 mm 2 mps 552 mmHg 61%
    14:00 +17°C° 0.3 mm 2 mps 551 mmHg 66%
    15:00 +16°C° 0.3 mm 2 mps 551 mmHg 70%
    16:00 +15°C° 0.3 mm 2 mps 550 mmHg 75%
    17:00 +14°C° 0.3 mm 1 mps 550 mmHg 81%
    18:00 +13°C° 0.3 mm 1 mps 549 mmHg 87%
    19:00 +12°C° 0.3 mm 1 mps 549 mmHg 93%
    20:00 +11°C° 0.1 mm 1 mps 550 mmHg 93%
    21:00 +11°C° 0.1 mm 1 mps 550 mmHg 93%
    22:00 +11°C° 0.1 mm 1 mps 550 mmHg 92%
    23:00 +10°C° 0 mm 1 mps 550 mmHg 91%

    Day after tomorrow, 15 December, Friday

    Time Temperature Precipitation Wind Pressure Humidity
    00:00 +10°C° 0 mm 1 mps 549 mmHg 90%
    01:00 +10°C° 0 mm 1 mps 549 mmHg 89%
    02:00 +10°C° 0 mm 1 mps 549 mmHg 89%
    03:00 +10°C° 0 mm 1 mps 549 mmHg 88%
    04:00 +10°C° 0 mm 1 mps 548 mmHg 87%
    05:00 +10°C° 0 mm 1 mps 549 mmHg 86%
    06:00 +11°C° 0 mm 1 mps 549 mmHg 85%
    07:00 +11°C° 0 mm 1 mps 550 mmHg 84%
    08:00 +13°C° 0 mm 2 mps 551 mmHg 73%
    09:00 +15°C° 0 mm 2 mps 552 mmHg 63%
    10:00 +17°C° 0 mm 2 mps 554 mmHg 53%
    11:00 +18°C° 0 mm 3 mps 553 mmHg 51%
    12:00 +19°C° 0 mm 3 mps 553 mmHg 50%
    13:00 +19°C° 0 mm 3 mps 553 mmHg 49%
    14:00 +18°C° 0.1 mm 3 mps 552 mmHg 51%
    15:00 +18°C° 0.1 mm 3 mps 551 mmHg 54%
    16:00 +17°C° 0.1 mm 2 mps 551 mmHg 57%
    17:00 +15°C° 0.1 mm 2 mps 550 mmHg 66%
    18:00 +13°C° 0.1 mm 1 mps 549 mmHg 75%
    19:00 +11°C° 0.1 mm 1 mps 548 mmHg 84%
    20:00 +10°C° 0 mm 1 mps 548 mmHg 83%
    21:00 +9°C° 0 mm 2 mps 549 mmHg 82%
    22:00 +8°C° 0 mm 2 mps 549 mmHg 81%
    23:00 +8°C° 0 mm 2 mps 549 mmHg 81%

    16 December, Saturday

    Time Temperature Precipitation Wind Pressure Humidity
    00:00 +8°C° 0 mm 2 mps 548 mmHg 81%
    01:00 +8°C° 0 mm 2 mps 548 mmHg 81%
    02:00 +8°C° 0 mm 2 mps 548 mmHg 82%
    03:00 +8°C° 0 mm 2 mps 547 mmHg 83%
    04:00 +9°C° 0 mm 1 mps 547 mmHg 83%
    05:00 +9°C° 0 mm 1 mps 548 mmHg 81%
    06:00 +10°C° 0 mm 1 mps 549 mmHg 79%
    07:00 +11°C° 0 mm 1 mps 549 mmHg 76%
    08:00 +13°C° 0 mm 1 mps 551 mmHg 69%
    09:00 +15°C° 0 mm 2 mps 552 mmHg 62%
    10:00 +17°C° 0 mm 2 mps 553 mmHg 55%
    11:00 +17°C° 0.1 mm 2 mps 553 mmHg 56%
    12:00 +17°C° 0.1 mm 2 mps 552 mmHg 58%
    13:00 +18°C° 0.1 mm 2 mps 552 mmHg 59%
    14:00 +17°C° 0.2 mm 2 mps 551 mmHg 62%
    15:00 +17°C° 0.2 mm 2 mps 550 mmHg 64%
    16:00 +16°C° 0.2 mm 2 mps 550 mmHg 66%
    17:00 +15°C° 0.3 mm 1 mps 549 mmHg 74%
    18:00 +13°C° 0.3 mm 1 mps 549 mmHg 82%
    19:00 +11°C° 0.3 mm 0 mps 549 mmHg 89%
    20:00 +11°C° 0.2 mm 0 mps 549 mmHg 89%
    21:00 +11°C° 0.2 mm 0 mps 549 mmHg 89%
    22:00 +12°C° 0.2 mm 1 mps 550 mmHg 89%
    23:00 +10°C° 0.1 mm 0 mps 549 mmHg 90%

    17 December, Sunday

    Time Temperature Precipitation Wind Pressure Humidity
    00:00 +10°C° 0.1 mm 0 mps 549 mmHg 90%
    01:00 +10°C° 0.1 mm 0 mps 549 mmHg 91%
    02:00 +10°C° 0 mm 0 mps 548 mmHg 91%
    03:00 +11°C° 0 mm 1 mps 548 mmHg 90%
    04:00 +11°C° 0 mm 1 mps 548 mmHg 90%
    05:00 +11°C° 0 mm 1 mps 549 mmHg 88%
    06:00 +11°C° 0 mm 1 mps 549 mmHg 87%
    07:00 +12°C° 0 mm 1 mps 550 mmHg 85%
    08:00 +13°C° 0 mm 1 mps 551 mmHg 78%
    09:00 +15°C° 0 mm 2 mps 552 mmHg 70%
    10:00 +16°C° 0 mm 2 mps 552 mmHg 63%
    11:00 +17°C° 0.1 mm 2 mps 552 mmHg 61%
    12:00 +18°C° 0.1 mm 2 mps 552 mmHg 59%
    13:00 +18°C° 0.1 mm 2 mps 552 mmHg 56%
    14:00 +18°C° 0.1 mm 2 mps 551 mmHg 58%
    15:00 +17°C° 0.1 mm 2 mps 551 mmHg 60%
    16:00 +17°C° 0.1 mm 2 mps 550 mmHg 62%
    17:00 +15°C° 0.1 mm 2 mps 550 mmHg 71%
    18:00 +13°C° 0.1 mm 1 mps 549 mmHg 80%
    19:00 +11°C° 0.1 mm 1 mps 548 mmHg 89%
    20:00 +11°C° 0 mm 1 mps 549 mmHg 89%
    21:00 +9°C° 0 mm 2 mps 549 mmHg 88%
    22:00 +9°C° 0 mm 2 mps 549 mmHg 87%
    23:00 +8°C° 0 mm 2 mps 549 mmHg 86%

    18 December, Monday

    Time Temperature Precipitation Wind Pressure Humidity
    00:00 +8°C° 0 mm 2 mps 548 mmHg 85%
    01:00 +8°C° 0 mm 2 mps 548 mmHg 84%
    02:00 +8°C° 0 mm 2 mps 547 mmHg 83%
    03:00 +7°C° 0 mm 2 mps 547 mmHg 83%
    04:00 +7°C° 0 mm 2 mps 547 mmHg 82%
    05:00 +8°C° 0 mm 2 mps 548 mmHg 80%
    06:00 +8°C° 0 mm 2 mps 548 mmHg 78%
    07:00 +9°C° 0 mm 2 mps 549 mmHg 76%
    08:00 +13°C° 0 mm 2 mps 550 mmHg 63%
    09:00 +15°C° 0 mm 2 mps 552 mmHg 51%
    10:00 +18°C° 0 mm 3 mps 553 mmHg 38%
    11:00 +19°C° 0 mm 3 mps 553 mmHg 38%
    12:00 +19°C° 0 mm 3 mps 553 mmHg 38%
    13:00 +20°C° 0 mm 3 mps 553 mmHg 38%
    14:00 +19°C° 0 mm 3 mps 552 mmHg 41%
    15:00 +19°C° 0 mm 3 mps 551 mmHg 45%
    16:00 +18°C° 0 mm 3 mps 551 mmHg 48%
    17:00 +15°C° 0.1 mm 2 mps 550 mmHg 57%
    18:00 +13°C° 0.1 mm 2 mps 549 mmHg 66%
    19:00 +10°C° 0.1 mm 1 mps 548 mmHg 76%
    20:00 +9°C° 0 mm 2 mps 548 mmHg 75%
    21:00 +8°C° 0 mm 2 mps 549 mmHg 74%
    22:00 +8°C° 0 mm 2 mps 549 mmHg 73%
    23:00 +8°C° 0 mm 2 mps 549 mmHg 75%
    Show more